Tracking 29892 objects as of 21-Nov-2024
HD Live streaming from Space Station
objects crossing your sky now

THORAD AGENA D DEB

Track THORAD AGENA D DEB now!
10-day predictions


NORAD ID: 17720
Int'l Code: 1970-025PJ
Perigee: 816.1 km
Apogee: 865.2 km
Inclination: 99.6 °
Period: 101.6 minutes
Semi major axis: 7211 km
RCS: 0.0125 m2 (small)
Launch date: April 8, 1970
Source: United States (US)
Launch site: AIR FORCE WESTERN TEST RANGE (AFWTR)

Note: This is SATELLITE DEBRIS
Your satellite tracking list
Your tracking list is empty




NASA's NSSDC Master Catalog

Two Line Element Set (TLE):
1 17720U 70025PJ  24324.49636093  .00006254  00000-0  30827-2 0  9995
2 17720  99.6361 159.7170 0034093   7.3972  22.6983 14.17589163 24214
Source of the keplerian elements: AFSPC